NSZ3613 LPPR-EKCH

Flight info

Callsign NSZ3613
Flight time 3h 51m
Altitude 24000
Route TURON P600 ASDEB/N0458F340 DCT LOTEE DCT AZFIC DCT ERIGA DCT GODIX/N0456F360 DCT PODEM UN873 BAZOS DCT BELDI/N0455F350 DCT VICOT DCT DOSUR DCT TALSA P729 TUDLO
Aircraft B738/M-SDE2E3FGHIRWXY/LB1

Departure

Time 2026-04-26 14:32
Airport Francisco de Sá Carneiro Airport (LPPR)

Arrival

Time 2026-04-26 18:24
Airport Copenhagen Kastrup Airport (EKCH)
Time Latitude Longitude Altitude Speed Heading
2026-04-26 14:08 41.23870 -8.67390 236 ft 0 kts 79°
2026-04-26 14:21 41.23869 -8.67393 236 ft 2 kts 79°
2026-04-26 14:21 41.23866 -8.67416 237 ft 3 kts 81°
2026-04-26 14:22 41.23863 -8.67443 240 ft 3 kts 88°
2026-04-26 14:22 41.23864 -8.67469 240 ft 3 kts 108°
2026-04-26 14:22 41.23872 -8.67487 238 ft 3 kts 157°
2026-04-26 14:22 41.23886 -8.67492 240 ft 3 kts 169°
2026-04-26 14:23 41.23906 -8.67497 239 ft 3 kts 169°
2026-04-26 14:23 41.23926 -8.67502 241 ft 3 kts 169°
2026-04-26 14:23 41.23945 -8.67507 236 ft 3 kts 169°
2026-04-26 14:23 41.23965 -8.67513 237 ft 3 kts 169°
2026-04-26 14:24 41.23985 -8.67518 240 ft 3 kts 169°
2026-04-26 14:24 41.24005 -8.67523 240 ft 3 kts 169°
2026-04-26 14:24 41.24014 -8.67525 239 ft 0 kts 169°
2026-04-26 14:28 41.24004 -8.67523 240 ft 4 kts 169°
2026-04-26 14:28 41.23971 -8.67514 238 ft 5 kts 168°
2026-04-26 14:28 41.23937 -8.67504 236 ft 5 kts 168°
2026-04-26 14:28 41.23899 -8.67493 238 ft 6 kts 168°
2026-04-26 14:29 41.23853 -8.67480 236 ft 7 kts 168°
2026-04-26 14:29 41.23804 -8.67466 236 ft 7 kts 168°
2026-04-26 14:29 41.23748 -8.67450 236 ft 10 kts 168°
2026-04-26 14:29 41.23669 -8.67427 241 ft 13 kts 168°
2026-04-26 14:30 41.23566 -8.67398 236 ft 17 kts 168°
2026-04-26 14:30 41.23444 -8.67374 236 ft 18 kts 176°
2026-04-26 14:30 41.23336 -8.67409 238 ft 17 kts 244°
2026-04-26 14:30 41.23311 -8.67561 238 ft 17 kts 259°
2026-04-26 14:31 41.23307 -8.67707 238 ft 16 kts 299°
2026-04-26 14:31 41.23363 -8.67749 237 ft 0 kts 347°
2026-04-26 14:31 41.23370 -8.67751 237 ft 2 kts 348°
2026-04-26 14:31 41.23481 -8.67780 233 ft 46 kts 349°
2026-04-26 14:32 41.24038 -8.67927 216 ft 115 kts 348°
2026-04-26 14:32 41.25013 -8.68195 193 ft 171 kts 347°
2026-04-26 14:32 41.26240 -8.68492 693 ft 181 kts 349°
2026-04-26 14:32 41.27467 -8.68805 1459 ft 176 kts 349°
2026-04-26 14:33 41.28675 -8.69102 2097 ft 185 kts 349°
2026-04-26 14:33 41.30047 -8.69455 2404 ft 214 kts 348°
2026-04-26 14:33 41.31596 -8.69858 2637 ft 236 kts 348°
2026-04-26 14:33 41.33241 -8.70300 3135 ft 246 kts 348°
2026-04-26 14:34 41.34998 -8.70789 3483 ft 266 kts 347°
2026-04-26 14:34 41.36830 -8.71289 4264 ft 269 kts 348°
2026-04-26 14:34 41.38670 -8.71777 5168 ft 270 kts 349°
2026-04-26 14:34 41.40528 -8.72269 5966 ft 274 kts 349°
2026-04-26 14:35 41.42424 -8.72637 6756 ft 276 kts
2026-04-26 14:35 41.44326 -8.72279 7567 ft 278 kts 12°
2026-04-26 14:35 41.46223 -8.71785 8300 ft 282 kts 12°
2026-04-26 14:35 41.48160 -8.71255 9071 ft 285 kts 12°
2026-04-26 14:36 41.50111 -8.70720 9859 ft 289 kts 12°
2026-04-26 14:36 41.52100 -8.70183 10478 ft 296 kts 12°
2026-04-26 14:36 41.54202 -8.69627 10656 ft 320 kts 11°
2026-04-26 14:36 41.56459 -8.69038 10832 ft 342 kts 11°
2026-04-26 14:37 41.58869 -8.68419 10990 ft 363 kts 11°
2026-04-26 14:37 41.61402 -8.67774 11318 ft 376 kts 11°
2026-04-26 14:37 41.63987 -8.67120 11913 ft 379 kts 11°
2026-04-26 14:37 41.66592 -8.66465 12595 ft 382 kts 11°
2026-04-26 14:38 41.69182 -8.65814 13208 ft 385 kts 11°
2026-04-26 14:38 41.71828 -8.65149 13815 ft 389 kts 10°
2026-04-26 14:38 41.74497 -8.64478 14356 ft 392 kts 10°
2026-04-26 14:38 41.77193 -8.63799 14914 ft 395 kts 10°
2026-04-26 14:39 41.79905 -8.63116 15467 ft 398 kts 10°
2026-04-26 14:39 41.82641 -8.62426 15997 ft 402 kts 10°
2026-04-26 14:39 41.85404 -8.61729 16531 ft 405 kts 10°
2026-04-26 14:39 41.88193 -8.61024 17048 ft 409 kts 10°
2026-04-26 14:40 41.90998 -8.60314 17561 ft 413 kts 10°
2026-04-26 14:40 41.93846 -8.59593 18061 ft 416 kts
2026-04-26 14:40 41.96702 -8.58869 18526 ft 420 kts 10°
2026-04-26 14:40 41.99590 -8.58136 18969 ft 423 kts
2026-04-26 14:41 42.02345 -8.57436 19403 ft 426 kts
2026-04-26 14:41 42.05261 -8.56695 19866 ft 428 kts
2026-04-26 14:41 42.08205 -8.56004 20319 ft 430 kts
2026-04-26 14:41 42.11175 -8.55482 20758 ft 433 kts
2026-04-26 14:42 42.14180 -8.55034 21191 ft 435 kts
2026-04-26 14:42 42.17202 -8.54602 21606 ft 438 kts
2026-04-26 14:42 42.20207 -8.54164 21998 ft 441 kts
2026-04-26 14:42 42.23260 -8.53703 22397 ft 443 kts
2026-04-26 14:43 42.26332 -8.53227 22764 ft 446 kts
2026-04-26 14:43 42.29436 -8.52737 23165 ft 449 kts
2026-04-26 14:43 42.32540 -8.52242 23572 ft 450 kts
2026-04-26 14:43 42.35674 -8.51743 23902 ft 453 kts
2026-04-26 14:44 42.38808 -8.51243 24207 ft 456 kts
2026-04-26 14:44 42.41966 -8.50739 24519 ft 458 kts
2026-04-26 14:44 42.45145 -8.50233 24814 ft 460 kts
2026-04-26 14:44 42.48324 -8.49604 25105 ft 464 kts 11°
2026-04-26 14:45 42.51363 -8.48251 25372 ft 468 kts 22°
2026-04-26 14:45 42.53327 -8.46904 25587 ft 471 kts 29°
2026-04-26 14:45 42.56849 -8.43326 25985 ft 475 kts 40°
2026-04-26 14:45 42.59302 -8.40397 26237 ft 477 kts 40°
2026-04-26 14:46 42.61781 -8.37383 26499 ft 480 kts 41°
2026-04-26 14:46 42.64272 -8.34349 26770 ft 482 kts 40°
2026-04-26 14:46 42.66776 -8.31316 27039 ft 484 kts 40°
2026-04-26 14:46 42.69306 -8.28273 27290 ft 486 kts 40°
2026-04-26 14:47 42.71850 -8.25230 27533 ft 488 kts 40°
2026-04-26 14:47 42.74406 -8.22181 27805 ft 489 kts 40°
2026-04-26 14:47 42.76975 -8.19119 28208 ft 488 kts 40°
2026-04-26 14:47 42.79529 -8.16074 28633 ft 486 kts 40°
2026-04-26 14:48 42.82044 -8.13075 29003 ft 485 kts 40°
2026-04-26 14:48 42.84574 -8.10053 29335 ft 485 kts 40°
2026-04-26 14:48 42.87114 -8.07015 29669 ft 485 kts 40°
2026-04-26 14:48 42.89651 -8.03975 30047 ft 484 kts 40°
2026-04-26 14:49 42.92180 -8.00940 30390 ft 483 kts 40°
2026-04-26 14:49 42.94702 -7.97911 30690 ft 483 kts 40°
2026-04-26 14:49 42.97220 -7.94883 30994 ft 482 kts 40°
2026-04-26 14:49 42.99728 -7.91863 31287 ft 481 kts 40°
2026-04-26 14:50 43.02243 -7.88832 31570 ft 481 kts 41°
2026-04-26 14:50 43.04757 -7.85798 31844 ft 481 kts 41°
2026-04-26 14:50 43.07261 -7.82774 32116 ft 480 kts 41°
2026-04-26 14:50 43.09764 -7.79747 32382 ft 480 kts 41°
2026-04-26 14:51 43.12268 -7.76714 32647 ft 480 kts 41°
2026-04-26 14:51 43.14762 -7.73691 32910 ft 479 kts 41°
2026-04-26 14:51 43.17225 -7.70701 33157 ft 479 kts 41°
2026-04-26 14:51 43.19725 -7.67665 33412 ft 479 kts 41°
2026-04-26 14:52 43.22216 -7.64635 33666 ft 479 kts 41°
2026-04-26 14:52 43.24710 -7.61598 33892 ft 479 kts 41°
2026-04-26 14:52 43.27207 -7.58553 34159 ft 478 kts 41°
2026-04-26 14:52 43.29689 -7.55524 34382 ft 477 kts 41°
2026-04-26 14:53 43.32172 -7.52491 34583 ft 477 kts 41°
2026-04-26 14:53 43.34649 -7.49460 34768 ft 477 kts 41°
2026-04-26 14:53 43.37130 -7.46422 34952 ft 478 kts 41°
2026-04-26 14:53 43.39606 -7.43386 35148 ft 478 kts 41°
2026-04-26 14:54 43.42091 -7.40336 35155 ft 480 kts 41°
2026-04-26 14:54 43.47074 -7.34208 35164 ft 479 kts 41°
2026-04-26 14:55 43.51996 -7.28141 35179 ft 477 kts 41°
2026-04-26 14:55 43.56931 -7.22044 35181 ft 475 kts 41°
2026-04-26 14:56 43.61844 -7.15961 35186 ft 475 kts 41°
2026-04-26 14:56 43.66761 -7.09859 35190 ft 475 kts 41°
2026-04-26 14:57 43.71676 -7.03745 35194 ft 476 kts 41°
2026-04-26 14:57 43.76612 -6.97592 35197 ft 478 kts 41°
2026-04-26 14:58 43.81553 -6.91417 35192 ft 480 kts 41°
2026-04-26 14:58 43.86484 -6.85240 35190 ft 481 kts 41°
2026-04-26 14:59 43.91451 -6.79004 35195 ft 483 kts 41°
2026-04-26 14:59 43.96429 -6.72739 35196 ft 484 kts 41°
2026-04-26 15:00 44.01416 -6.66447 35192 ft 484 kts 41°
2026-04-26 15:00 44.06407 -6.60137 35189 ft 484 kts 41°
2026-04-26 15:01 44.11362 -6.53856 35190 ft 484 kts 41°
2026-04-26 15:01 44.16333 -6.47540 35192 ft 484 kts 41°
2026-04-26 15:02 44.21295 -6.41220 35194 ft 483 kts 41°
2026-04-26 15:02 44.26251 -6.34893 35193 ft 482 kts 41°
2026-04-26 15:03 44.31199 -6.28562 35189 ft 482 kts 41°
2026-04-26 15:03 44.36132 -6.22233 35192 ft 481 kts 41°
2026-04-26 15:04 44.41062 -6.15893 35194 ft 481 kts 41°
2026-04-26 15:04 44.45978 -6.09556 35195 ft 480 kts 41°
2026-04-26 15:05 44.50861 -6.03245 35194 ft 480 kts 41°
2026-04-26 15:05 44.55765 -5.96892 35193 ft 480 kts 42°
2026-04-26 15:06 44.60669 -5.90520 35194 ft 480 kts 42°
2026-04-26 15:06 44.65569 -5.84143 35196 ft 480 kts 42°
2026-04-26 15:07 44.72798 -5.74379 35195 ft 480 kts 43°
2026-04-26 15:07 44.77552 -5.67814 35194 ft 481 kts 44°
2026-04-26 15:08 44.82333 -5.61218 35193 ft 481 kts 43°
2026-04-26 15:08 44.87112 -5.54627 35195 ft 481 kts 43°
2026-04-26 15:09 44.91902 -5.48012 35193 ft 482 kts 43°
2026-04-26 15:09 44.96696 -5.41377 35191 ft 482 kts 44°
2026-04-26 15:10 45.00669 -5.35864 35191 ft 482 kts 44°
2026-04-26 15:10 45.06261 -5.28085 35193 ft 482 kts 44°
2026-04-26 15:11 45.11035 -5.21426 35192 ft 482 kts 44°
2026-04-26 15:11 45.15775 -5.14798 35195 ft 482 kts 44°
2026-04-26 15:12 45.20539 -5.08118 35193 ft 481 kts 44°
2026-04-26 15:12 45.25297 -5.01432 35192 ft 481 kts 44°
2026-04-26 15:13 45.30043 -4.94746 35196 ft 481 kts 44°
2026-04-26 15:13 45.34785 -4.88049 35194 ft 480 kts 44°
2026-04-26 15:14 45.38722 -4.82475 35192 ft 480 kts 44°
2026-04-26 15:14 45.44221 -4.74672 35189 ft 480 kts 44°
2026-04-26 15:15 45.48174 -4.69047 35190 ft 479 kts 44°
2026-04-26 15:15 45.52862 -4.62363 35189 ft 479 kts 44°
2026-04-26 15:16 45.57579 -4.55620 35191 ft 479 kts 44°
2026-04-26 15:16 45.62278 -4.48886 35192 ft 479 kts 44°
2026-04-26 15:17 45.66186 -4.43272 35191 ft 479 kts 44°
2026-04-26 15:17 45.71651 -4.35401 35191 ft 479 kts 44°
2026-04-26 15:18 45.76347 -4.28619 35194 ft 479 kts 44°
2026-04-26 15:18 45.81039 -4.21826 35194 ft 479 kts 44°
2026-04-26 15:19 45.85732 -4.15015 35188 ft 479 kts 44°
2026-04-26 15:19 45.90419 -4.08195 35188 ft 480 kts 44°
2026-04-26 15:20 45.95104 -4.01359 35188 ft 480 kts 44°
2026-04-26 15:20 45.99757 -3.94555 35191 ft 480 kts 44°
2026-04-26 15:21 46.04435 -3.87695 35195 ft 480 kts 44°
2026-04-26 15:21 46.09112 -3.80819 35190 ft 480 kts 45°
2026-04-26 15:22 46.13775 -3.73945 35191 ft 479 kts 45°
2026-04-26 15:22 46.18434 -3.67060 35192 ft 479 kts 45°
2026-04-26 15:23 46.23092 -3.60158 35196 ft 479 kts 45°
2026-04-26 15:23 46.27710 -3.53298 35191 ft 479 kts 45°
2026-04-26 15:24 46.32356 -3.46378 35197 ft 479 kts 45°
2026-04-26 15:24 46.37000 -3.39443 35201 ft 479 kts 45°
2026-04-26 15:25 46.40854 -3.33672 35198 ft 479 kts 45°
2026-04-26 15:25 46.46265 -3.25550 35194 ft 479 kts 45°
2026-04-26 15:26 46.50883 -3.18595 35193 ft 479 kts 45°
2026-04-26 15:26 46.55470 -3.11670 35199 ft 479 kts 46°
2026-04-26 15:27 46.59365 -3.03827 35214 ft 479 kts 59°
2026-04-26 15:27 46.62664 -2.95407 35196 ft 479 kts 60°
2026-04-26 15:28 46.65959 -2.86981 35194 ft 479 kts 59°
2026-04-26 15:28 46.69297 -2.78567 35195 ft 479 kts 59°
2026-04-26 15:29 46.72622 -2.70217 35191 ft 479 kts 59°
2026-04-26 15:30 46.79291 -2.53374 35190 ft 479 kts 59°
2026-04-26 15:30 46.82616 -2.44930 35188 ft 479 kts 59°
2026-04-26 15:31 46.88149 -2.32835 35182 ft 477 kts 44°
2026-04-26 15:32 46.94398 -2.23708 35183 ft 477 kts 43°
2026-04-26 15:32 46.99869 -2.15738 35184 ft 477 kts 44°
2026-04-26 15:33 47.04542 -2.08808 35187 ft 477 kts 44°
2026-04-26 15:33 47.09195 -2.01851 35188 ft 477 kts 44°
2026-04-26 15:34 47.13810 -1.94927 35176 ft 477 kts 44°
2026-04-26 15:34 47.18451 -1.87951 35164 ft 477 kts 44°
2026-04-26 15:35 47.23090 -1.80961 35162 ft 477 kts 44°
2026-04-26 15:35 47.27712 -1.73978 35167 ft 477 kts 44°
2026-04-26 15:36 47.32347 -1.66958 35164 ft 476 kts 44°
2026-04-26 15:36 47.36963 -1.59946 35166 ft 476 kts 44°
2026-04-26 15:37 47.41577 -1.52920 35167 ft 476 kts 44°
2026-04-26 15:37 47.46155 -1.45929 35170 ft 476 kts 44°
2026-04-26 15:38 47.50759 -1.38880 35172 ft 475 kts 44°
2026-04-26 15:38 47.55351 -1.31830 35175 ft 475 kts 44°
2026-04-26 15:39 47.59935 -1.24774 35172 ft 475 kts 44°
2026-04-26 15:39 47.63738 -1.18906 35171 ft 474 kts 44°
2026-04-26 15:40 47.69041 -1.10700 35173 ft 474 kts 44°
2026-04-26 15:40 47.73601 -1.03623 35178 ft 473 kts 44°
2026-04-26 15:41 47.78143 -0.96555 35178 ft 472 kts 44°
2026-04-26 15:41 47.82678 -0.89480 35180 ft 472 kts 44°
2026-04-26 15:42 47.87201 -0.82403 35190 ft 471 kts 44°
2026-04-26 15:42 47.91724 -0.75308 35188 ft 472 kts 44°
2026-04-26 15:43 47.96208 -0.68254 35184 ft 471 kts 44°
2026-04-26 15:44 48.02963 -0.57592 35186 ft 471 kts 44°
2026-04-26 15:44 48.09721 -0.46881 35183 ft 471 kts 44°
2026-04-26 15:45 48.16423 -0.36216 35185 ft 471 kts 44°
2026-04-26 15:46 48.23144 -0.25472 35194 ft 470 kts 44°
2026-04-26 15:46 48.26864 -0.19507 35187 ft 470 kts 44°
2026-04-26 15:47 48.34311 -0.07522 35193 ft 470 kts 45°
2026-04-26 15:48 48.38727 -0.00276 35191 ft 470 kts 46°
2026-04-26 15:48 48.43022 0.07171 35198 ft 470 kts 47°
2026-04-26 15:49 48.47288 0.14649 35195 ft 470 kts 47°
2026-04-26 15:49 48.51554 0.22105 35196 ft 470 kts 47°
2026-04-26 15:50 48.55833 0.29575 35205 ft 470 kts 47°
2026-04-26 15:50 48.60079 0.37001 35206 ft 470 kts 47°
2026-04-26 15:51 48.64352 0.44494 35203 ft 470 kts 47°
2026-04-26 15:51 48.68622 0.52007 35205 ft 471 kts 47°
2026-04-26 15:52 48.72891 0.59538 35209 ft 471 kts 47°
2026-04-26 15:52 48.77167 0.67105 35210 ft 472 kts 47°
2026-04-26 15:53 48.81441 0.74688 35211 ft 473 kts 47°
2026-04-26 15:53 48.85712 0.82289 35217 ft 474 kts 47°
2026-04-26 15:54 48.89992 0.89929 35225 ft 475 kts 47°
2026-04-26 15:54 48.94247 0.97546 35231 ft 476 kts 46°
2026-04-26 15:55 48.98531 1.05238 35241 ft 476 kts 47°
2026-04-26 15:55 49.02806 1.12936 35240 ft 476 kts 47°
2026-04-26 15:56 49.07078 1.20650 35242 ft 476 kts 46°
2026-04-26 15:56 49.11342 1.28374 35240 ft 474 kts 46°
2026-04-26 15:57 49.15556 1.36031 35239 ft 473 kts 46°
2026-04-26 15:57 49.19777 1.43725 35232 ft 471 kts 46°
2026-04-26 15:58 49.23976 1.51397 35230 ft 469 kts 46°
2026-04-26 15:58 49.28319 1.58806 35236 ft 464 kts 40°
2026-04-26 15:59 49.32985 1.65500 35231 ft 462 kts 39°
2026-04-26 15:59 49.37690 1.72206 35234 ft 461 kts 39°
2026-04-26 16:00 49.42349 1.79001 35233 ft 462 kts 40°
2026-04-26 16:00 49.46989 1.85836 35239 ft 462 kts 40°
2026-04-26 16:01 49.51638 1.92690 35240 ft 464 kts 40°
2026-04-26 16:01 49.56276 1.99534 35243 ft 465 kts 40°
2026-04-26 16:02 49.60979 2.06490 35242 ft 466 kts 40°
2026-04-26 16:02 49.65618 2.13382 35243 ft 466 kts 40°
2026-04-26 16:03 49.70279 2.20324 35245 ft 463 kts 40°
2026-04-26 16:03 49.74904 2.27232 35238 ft 462 kts 40°
2026-04-26 16:04 49.79514 2.34136 35244 ft 460 kts 40°
2026-04-26 16:04 49.83326 2.39862 35242 ft 459 kts 40°
2026-04-26 16:05 49.87900 2.46750 35246 ft 459 kts 40°
2026-04-26 16:05 49.92488 2.53678 35233 ft 460 kts 40°
2026-04-26 16:06 49.97298 2.60158 35229 ft 455 kts 28°
2026-04-26 16:06 50.02719 2.65193 35240 ft 454 kts 26°
2026-04-26 16:07 50.08194 2.70139 35249 ft 456 kts 26°
2026-04-26 16:07 50.13650 2.75151 35248 ft 458 kts 26°
2026-04-26 16:08 50.19125 2.80252 35247 ft 459 kts 27°
2026-04-26 16:08 50.24611 2.85397 35253 ft 460 kts 27°
2026-04-26 16:09 50.30090 2.90551 35261 ft 460 kts 27°
2026-04-26 16:09 50.35570 2.95716 35258 ft 460 kts 27°
2026-04-26 16:10 50.41056 3.00899 35264 ft 459 kts 27°
2026-04-26 16:10 50.46527 3.06083 35263 ft 459 kts 27°
2026-04-26 16:11 50.51954 3.11239 35266 ft 458 kts 27°
2026-04-26 16:11 50.57414 3.16439 35269 ft 457 kts 27°
2026-04-26 16:12 50.62855 3.21637 35268 ft 457 kts 27°
2026-04-26 16:12 50.70968 3.29413 35266 ft 456 kts 27°
2026-04-26 16:13 50.76405 3.34642 35267 ft 456 kts 27°
2026-04-26 16:13 50.80757 3.38838 35270 ft 456 kts 27°
2026-04-26 17:18 50.80785 3.38865 35288 ft 456 kts 27°
2026-04-26 17:18 50.81817 3.39861 35273 ft 457 kts 30°
2026-04-26 17:19 50.89774 3.47587 35286 ft 468 kts 28°
2026-04-26 17:19 50.95328 3.52978 35262 ft 468 kts 28°
2026-04-26 17:20 50.99945 3.57471 35276 ft 468 kts 28°
2026-04-26 17:20 51.06422 3.63794 35271 ft 467 kts 28°
2026-04-26 17:21 51.11944 3.69202 35274 ft 466 kts 28°
2026-04-26 17:21 51.17456 3.74615 35275 ft 464 kts 29°
2026-04-26 17:22 51.22936 3.80013 35278 ft 463 kts 28°
2026-04-26 17:22 51.28350 3.85362 35277 ft 461 kts 28°
2026-04-26 17:23 51.33822 3.90781 35276 ft 460 kts 28°
2026-04-26 17:23 51.39262 3.96186 35273 ft 459 kts 28°
2026-04-26 17:24 51.44688 4.01590 35274 ft 458 kts 28°
2026-04-26 17:24 51.49985 4.07269 35270 ft 461 kts 36°
2026-04-26 17:25 51.54882 4.13936 35271 ft 461 kts 38°
2026-04-26 17:25 51.59719 4.20751 35274 ft 461 kts 38°
2026-04-26 17:26 51.64548 4.27494 35271 ft 462 kts 37°
2026-04-26 17:26 51.69425 4.34248 35275 ft 462 kts 37°
2026-04-26 17:27 51.74263 4.40942 35287 ft 462 kts 37°
2026-04-26 17:27 51.79121 4.47681 35288 ft 462 kts 37°
2026-04-26 17:28 51.83996 4.54465 35296 ft 462 kts 37°
2026-04-26 17:28 51.88892 4.61302 35294 ft 462 kts 37°
2026-04-26 17:29 51.92114 4.65813 35293 ft 461 kts 37°
2026-04-26 17:29 51.97555 4.73449 35294 ft 461 kts 37°
2026-04-26 17:30 52.02392 4.80260 35294 ft 460 kts 37°
2026-04-26 17:30 52.07223 4.87083 35308 ft 459 kts 37°
2026-04-26 17:31 52.12003 4.93853 35311 ft 458 kts 37°
2026-04-26 17:31 52.16801 5.00669 35314 ft 457 kts 37°
2026-04-26 17:32 52.21552 5.07438 35316 ft 456 kts 37°
2026-04-26 17:32 52.26332 5.14269 35313 ft 456 kts 37°
2026-04-26 17:33 52.31094 5.21094 35310 ft 455 kts 37°
2026-04-26 17:34 52.38227 5.31355 35317 ft 455 kts 37°
2026-04-26 17:34 52.42932 5.38150 35323 ft 455 kts 37°
2026-04-26 17:35 52.47680 5.45026 35319 ft 455 kts 37°
2026-04-26 17:35 52.52421 5.51912 35324 ft 456 kts 37°
2026-04-26 17:36 52.57172 5.58835 35322 ft 456 kts 37°
2026-04-26 17:36 52.61900 5.65744 35319 ft 457 kts 37°
2026-04-26 17:37 52.66654 5.72713 35320 ft 457 kts 37°
2026-04-26 17:37 52.71408 5.79703 35317 ft 458 kts 37°
2026-04-26 17:38 52.77433 5.89674 35320 ft 462 kts 42°
2026-04-26 17:38 52.81820 5.97445 35317 ft 462 kts 42°
2026-04-26 17:39 52.86223 6.05190 35322 ft 462 kts 42°
2026-04-26 17:39 52.90652 6.12917 35325 ft 462 kts 41°
2026-04-26 17:40 52.94329 6.19325 35323 ft 462 kts 41°
2026-04-26 17:40 52.99500 6.28359 35334 ft 461 kts 41°
2026-04-26 17:41 53.03911 6.36094 35324 ft 461 kts 41°
2026-04-26 17:41 53.08311 6.43836 35323 ft 461 kts 42°
2026-04-26 17:42 53.12679 6.51548 35321 ft 460 kts 42°
2026-04-26 17:42 53.17067 6.59319 35322 ft 460 kts 42°
2026-04-26 17:43 53.21443 6.67094 35322 ft 460 kts 42°
2026-04-26 17:43 53.25824 6.74904 35324 ft 460 kts 42°
2026-04-26 17:44 53.30189 6.82710 35327 ft 460 kts 42°
2026-04-26 17:44 53.34529 6.90495 35329 ft 460 kts 42°
2026-04-26 17:45 53.38887 6.98338 35326 ft 460 kts 42°
2026-04-26 17:45 53.43232 7.06183 35323 ft 460 kts 42°
2026-04-26 17:46 53.47581 7.14060 35320 ft 460 kts 42°
2026-04-26 17:46 53.51925 7.21954 35325 ft 460 kts 42°
2026-04-26 17:47 53.55559 7.28577 35326 ft 460 kts 43°
2026-04-26 17:47 53.60608 7.37811 35336 ft 461 kts 43°
2026-04-26 17:48 53.64953 7.45782 35335 ft 462 kts 43°
2026-04-26 17:48 53.69308 7.53801 35331 ft 464 kts 43°
2026-04-26 17:49 53.73666 7.61852 35335 ft 465 kts 43°
2026-04-26 17:49 53.78030 7.69940 35335 ft 465 kts 43°
2026-04-26 17:50 53.82385 7.78040 35333 ft 466 kts 43°
2026-04-26 17:50 53.86717 7.86122 35338 ft 466 kts 43°
2026-04-26 17:51 53.91071 7.94274 35335 ft 466 kts 43°
2026-04-26 17:51 53.95411 8.02426 35332 ft 465 kts 43°
2026-04-26 17:52 53.99745 8.10593 35328 ft 465 kts 43°
2026-04-26 17:52 54.04069 8.18771 35326 ft 464 kts 43°
2026-04-26 17:53 54.08380 8.26950 35325 ft 464 kts 43°
2026-04-26 17:54 54.14837 8.39252 35323 ft 463 kts 43°
2026-04-26 17:54 54.19132 8.47471 35323 ft 463 kts 43°
2026-04-26 17:55 54.23413 8.55689 35320 ft 463 kts 44°
2026-04-26 17:55 54.27661 8.63873 35322 ft 463 kts 44°
2026-04-26 17:56 54.31938 8.72140 35323 ft 463 kts 44°
2026-04-26 17:57 54.40465 8.88705 35321 ft 463 kts 44°
2026-04-26 17:57 54.44691 8.96957 35316 ft 463 kts 44°
2026-04-26 17:58 54.53191 9.13639 35310 ft 464 kts 44°
2026-04-26 17:59 54.59555 9.26207 35304 ft 464 kts 44°
2026-04-26 17:59 54.63809 9.34642 35305 ft 464 kts 44°
2026-04-26 18:00 54.68044 9.43071 35303 ft 464 kts 44°
2026-04-26 18:00 54.72252 9.51474 35300 ft 464 kts 44°
2026-04-26 18:01 54.76478 9.59941 35298 ft 464 kts 44°
2026-04-26 18:01 54.80687 9.68406 35296 ft 464 kts 44°
2026-04-26 18:02 54.84197 9.75487 35088 ft 464 kts 44°
2026-04-26 18:02 54.86849 9.81324 33398 ft 486 kts 53°
2026-04-26 18:02 54.88570 9.86421 32554 ft 488 kts 56°
2026-04-26 18:03 54.90209 9.91557 31931 ft 484 kts 57°
2026-04-26 18:03 54.91810 9.96644 30856 ft 490 kts 57°
2026-04-26 18:03 54.93450 10.01845 30052 ft 489 kts 57°
2026-04-26 18:03 54.95084 10.06998 29497 ft 481 kts 57°
2026-04-26 18:04 54.96684 10.12019 29328 ft 466 kts 56°
2026-04-26 18:04 54.98217 10.16822 29272 ft 442 kts 56°
2026-04-26 18:04 54.99675 10.21382 29259 ft 419 kts 56°
2026-04-26 18:05 55.02371 10.29807 29258 ft 377 kts 55°
2026-04-26 18:05 55.03615 10.33697 29258 ft 358 kts 55°
2026-04-26 18:05 55.04804 10.37414 29228 ft 345 kts 54°
2026-04-26 18:05 55.05962 10.41032 28884 ft 339 kts 54°
2026-04-26 18:06 55.07108 10.44609 28416 ft 336 kts 54°
2026-04-26 18:06 55.08241 10.48153 27931 ft 333 kts 54°
2026-04-26 18:06 55.09349 10.51696 27384 ft 335 kts 59°
2026-04-26 18:06 55.10233 10.55568 26393 ft 353 kts 65°
2026-04-26 18:07 55.11000 10.59563 26119 ft 344 kts 66°
2026-04-26 18:07 55.11731 10.63484 25720 ft 339 kts 65°
2026-04-26 18:07 55.12499 10.67469 24641 ft 357 kts 65°
2026-04-26 18:07 55.13056 10.70318 23771 ft 373 kts 66°
2026-04-26 18:08 55.14199 10.76188 21868 ft 397 kts 66°
2026-04-26 18:08 55.15096 10.80841 20525 ft 409 kts 67°
2026-04-26 18:08 55.16005 10.85605 19339 ft 417 kts 67°
2026-04-26 18:08 55.16917 10.90422 18383 ft 416 kts 68°
2026-04-26 18:09 55.17816 10.95199 17541 ft 409 kts 67°
2026-04-26 18:09 55.18694 10.99873 16744 ft 402 kts 67°
2026-04-26 18:09 55.19561 11.04496 15922 ft 397 kts 67°
2026-04-26 18:09 55.20413 11.09032 15115 ft 392 kts 67°
2026-04-26 18:10 55.21263 11.13564 14333 ft 388 kts 67°
2026-04-26 18:10 55.22099 11.18030 13508 ft 383 kts 67°
2026-04-26 18:10 55.22919 11.22419 12788 ft 376 kts 68°
2026-04-26 18:10 55.23715 11.26700 12171 ft 366 kts 68°
2026-04-26 18:11 55.24491 11.30865 11337 ft 365 kts 68°
2026-04-26 18:11 55.25272 11.35080 11072 ft 346 kts 68°
2026-04-26 18:11 55.25984 11.38947 10873 ft 329 kts 68°
2026-04-26 18:11 55.26683 11.42738 10739 ft 318 kts 67°
2026-04-26 18:12 55.27343 11.46319 10601 ft 309 kts 67°
2026-04-26 18:12 55.27997 11.49864 10472 ft 300 kts 67°
2026-04-26 18:12 55.28629 11.53302 10345 ft 292 kts 67°
2026-04-26 18:12 55.29246 11.56664 10171 ft 287 kts 67°
2026-04-26 18:13 55.29857 11.59984 9870 ft 285 kts 67°
2026-04-26 18:13 55.30463 11.63289 9591 ft 283 kts 67°
2026-04-26 18:13 55.31062 11.66567 9320 ft 281 kts 68°
2026-04-26 18:13 55.31456 11.68724 9133 ft 280 kts 68°
2026-04-26 18:14 55.32245 11.73059 8765 ft 277 kts 68°
2026-04-26 18:14 55.32829 11.76273 8494 ft 275 kts 68°
2026-04-26 18:14 55.33409 11.79470 8229 ft 274 kts 68°
2026-04-26 18:14 55.33985 11.82654 7955 ft 272 kts 68°
2026-04-26 18:15 55.34556 11.85818 7690 ft 271 kts 69°
2026-04-26 18:15 55.35124 11.88969 7427 ft 269 kts 69°
2026-04-26 18:15 55.35687 11.92098 7171 ft 268 kts 69°
2026-04-26 18:15 55.36248 11.95221 6902 ft 267 kts 69°
2026-04-26 18:16 55.36804 11.98321 6640 ft 266 kts 69°
2026-04-26 18:16 55.37908 12.04494 6092 ft 263 kts 69°
2026-04-26 18:16 55.38329 12.06851 5884 ft 262 kts 69°
2026-04-26 18:17 55.38877 12.09930 5616 ft 261 kts 69°
2026-04-26 18:17 55.39418 12.12973 5367 ft 260 kts 70°
2026-04-26 18:17 55.39963 12.16034 4918 ft 266 kts 70°
2026-04-26 18:17 55.40512 12.19132 4616 ft 266 kts 70°
2026-04-26 18:18 55.41062 12.22237 4316 ft 265 kts 70°
2026-04-26 18:18 55.41610 12.25336 4039 ft 264 kts 70°
2026-04-26 18:18 55.42147 12.28387 3903 ft 257 kts 70°
2026-04-26 18:18 55.42668 12.31349 3773 ft 250 kts 71°
2026-04-26 18:19 55.43173 12.34228 3670 ft 242 kts 71°
2026-04-26 18:19 55.43920 12.36781 3531 ft 230 kts 40°
2026-04-26 18:19 55.45141 12.38499 3362 ft 223 kts 36°
2026-04-26 18:19 55.46300 12.40256 3158 ft 216 kts 39°
2026-04-26 18:20 55.47397 12.41982 3015 ft 206 kts 39°
2026-04-26 18:20 55.48469 12.43657 2904 ft 206 kts 38°
2026-04-26 18:20 55.49534 12.45314 2647 ft 205 kts 39°
2026-04-26 18:20 55.49892 12.45869 2545 ft 202 kts 39°
2026-04-26 18:21 55.51576 12.48488 2085 ft 186 kts 39°
2026-04-26 18:21 55.52219 12.49486 1925 ft 178 kts 39°
2026-04-26 18:21 55.53120 12.50886 1688 ft 168 kts 39°
2026-04-26 18:21 55.53962 12.52194 1476 ft 158 kts 40°
2026-04-26 18:22 55.54778 12.53460 1247 ft 154 kts 40°
2026-04-26 18:22 55.55577 12.54700 1038 ft 152 kts 39°
2026-04-26 18:22 55.56374 12.55939 824 ft 151 kts 40°
2026-04-26 18:22 55.57129 12.57102 611 ft 147 kts 39°
2026-04-26 18:23 55.57881 12.58275 390 ft 143 kts 40°
2026-04-26 18:23 55.58614 12.59409 214 ft 142 kts 41°
2026-04-26 18:23 55.59355 12.60564 39 ft 141 kts 41°
2026-04-26 18:23 55.60013 12.61583 26 ft 100 kts 40°
2026-04-26 18:24 55.60376 12.62133 22 ft 37 kts 40°
2026-04-26 18:24 55.60533 12.62299 25 ft 22 kts 21°
2026-04-26 18:24 55.60663 12.62357 26 ft 18 kts 13°
2026-04-26 18:24 55.60774 12.62401 23 ft 14 kts 17°
2026-04-26 18:25 55.60854 12.62492 24 ft 13 kts 39°
2026-04-26 18:25 55.60922 12.62599 24 ft 13 kts 41°
2026-04-26 18:25 55.60987 12.62700 23 ft 13 kts 41°
2026-04-26 18:25 55.61052 12.62802 26 ft 12 kts 41°
2026-04-26 18:26 55.61115 12.62899 23 ft 12 kts 42°
2026-04-26 18:26 55.61178 12.62996 23 ft 12 kts 40°
2026-04-26 18:26 55.61242 12.63096 26 ft 13 kts 41°
2026-04-26 18:26 55.61309 12.63201 23 ft 13 kts 41°
2026-04-26 18:27 55.61380 12.63308 23 ft 14 kts 41°
2026-04-26 18:27 55.61452 12.63418 24 ft 14 kts 41°
2026-04-26 18:27 55.61527 12.63534 23 ft 15 kts 41°
2026-04-26 18:27 55.61605 12.63657 23 ft 15 kts 43°
2026-04-26 18:28 55.61686 12.63783 23 ft 16 kts 41°
2026-04-26 18:28 55.61767 12.63908 26 ft 15 kts 40°
2026-04-26 18:28 55.61844 12.64028 26 ft 15 kts 39°
2026-04-26 18:28 55.61930 12.64118 26 ft 14 kts 25°
2026-04-26 18:29 55.62015 12.64190 23 ft 13 kts 25°
2026-04-26 18:29 55.62098 12.64259 23 ft 13 kts 24°
2026-04-26 18:29 55.62179 12.64324 23 ft 13 kts 24°
2026-04-26 18:29 55.62261 12.64384 21 ft 13 kts 17°
2026-04-26 18:30 55.62347 12.64424 23 ft 13 kts 15°
2026-04-26 18:30 55.62429 12.64416 23 ft 12 kts 324°
2026-04-26 18:30 55.62484 12.64304 24 ft 12 kts 307°
2026-04-26 18:30 55.62532 12.64185 23 ft 12 kts 302°
2026-04-26 18:31 55.62576 12.64065 24 ft 11 kts 303°
2026-04-26 18:31 55.62618 12.63949 23 ft 11 kts 303°
2026-04-26 18:31 55.62663 12.63841 23 ft 11 kts 320°
2026-04-26 18:31 55.62702 12.63848 23 ft 6 kts 43°
2026-04-26 18:32 55.62731 12.63901 23 ft 6 kts 35°
2026-04-26 18:32 55.62768 12.63942 26 ft 7 kts 29°
2026-04-26 18:32 55.62817 12.63937 24 ft 8 kts 321°
2026-04-26 18:32 55.62850 12.63855 23 ft 6 kts 327°
2026-04-26 18:33 55.62875 12.63860 23 ft 4 kts 24°
2026-04-26 18:33 55.62893 12.63869 23 ft 2 kts 13°
2026-04-26 18:33 55.62904 12.63873 23 ft 0 kts 12°